Regional Weather Roundup
Issued by NWS

Home | Current Version | Previous Version | Text Only | Print | Product List | Glossary On
Versions: 1 2 3 4 5 6 7 8 9 10 11 12 13 14 15 16 17 18 19 20 21 22 23 24 25 26 27 28 29 30 31 32 33 34 35 36 37 38 39 40 41 42 43 44 45 46 47 48 49 50
000
ASUS43 KTOP 220408
RWRKS

WEATHER ROUNDUP FOR KANSAS
NATIONAL WEATHER SERVICE GOODLAND KS
1100 PM CDT TUE OCT 21 2014

NOTE:  "FAIR" INDICATES FEW OR NO CLOUDS BELOW 12,000 FEET WITH NO
SIGNIFICANT WEATHER AND/OR OBSTRUCTIONS TO VISIBILITY.

KSZ001>006-013>018-027>032-041>047-220500-
NORTHWEST KANSAS

CITY           SKY/WX    TMP DP  RH WIND       PRES   REMARKS
GOODLAND       CLEAR     59  46  62 S13       29.96S
HAYS           CLEAR     64  54  68 S13       29.98S
HILL CITY      PTCLDY    66  54  65 S12       29.96S
RUSSELL        CLEAR     65  57  75 S16       29.98S
$$

KSZ061>065-074>080-084>089-220500-
SOUTHWEST KANSAS

CITY           SKY/WX    TMP DP  RH WIND       PRES   REMARKS
DODGE CITY     CLEAR     64  52  64 S14       30.02R
ELKHART          N/A     58  44  60 S12         N/A
GARDEN CITY    CLEAR     62  51  67 S14       30.00R
GREAT BEND     CLEAR     64  54  68 S13       30.01S
LIBERAL        CLEAR     63  48  59 S13       30.04S
PRATT          CLEAR     64  54  68 S10       30.04S
$$

KSZ066>073-081>083-090>101-220500-
SOUTHEAST KANSAS

CITY           SKY/WX    TMP DP  RH WIND       PRES   REMARKS
CHANUTE        CLEAR     60  52  74 E9        30.09S
COFFEYVILLE    CLEAR     59  55  87 CALM      30.08S
HUTCHINSON     CLEAR     65  58  78 SE9       30.04R
MEDICINE LODGE   N/A     67  57  70 S8        30.02F
NEWTON         CLEAR     63  52  67 SE8       30.08R
PARSONS        CLEAR     64  51  62 CALM      30.10S
WICHITA INTL   CLEAR     67  59  75 SE12      30.05R
WICHITA JABRA  CLEAR     64  57  78 SE8       30.05S
WICHITA MCCONL CLEAR     66  61  85 SE12      30.05F
WINFIELD       CLEAR     66  61  84 SE7       30.07S
$$

KSZ007>012-019>026-033>040-048>060-102>105-220500-
NORTHEAST KANSAS

CITY           SKY/WX    TMP DP  RH WIND       PRES   REMARKS
CONCORDIA      CLEAR     65  56  72 S17G24    30.01S
EMPORIA        CLEAR     60  53  77 SE8       30.07S
LAWRENCE       CLEAR     52  44  74 E5        30.10S
MANHATTAN      CLEAR     64  53  67 CALM      30.05R
MARYSVILLE     CLEAR     61  45  55 SE12G17   30.05S
OLATHE IND     CLEAR     57  44  62 SE7       30.11F
OLATHE EXE     CLEAR     57  44  62 SE7       30.11S
SALINA         CLEAR     66  57  72 S13       30.02S
TOPEKA BILLARD CLEAR     58  46  64 E6        30.09S
TOPEKA FORBES  CLEAR     56  45  66 SE7       30.08S
$$



USA.gov is the U.S. government's official web portal to all federal, state and local government web resources and services.